DW2905 Weather Reports


Display with metric or nautical units.
time (UTC)temp
F
wind
direction
speed
MPH
gust
MPH
rain 1hr
in
rain 24hr
in
rain mn
in
humidity
%
barometer
mb
20180717190131 50 339 6.0 0.0 0.00 0.00 0.00 84 1011.6
20180717184629 50 339 6.0 0.0 0.00 0.00 0.00 83 1011.7
20180717183130 50 339 5.0 0.0 0.00 0.00 0.00 82 1011.7
20180717181625 51 339 7.0 0.0 0.00 0.00 0.00 80 1011.7
20180717180120 52 339 8.0 0.0 0.00 0.00 0.00 79 1011.8
20180717174618 54 339 8.0 0.0 0.00 0.00 0.00 76 1011.6
20180717173119 55 339 9.0 0.0 0.00 0.00 0.00 76 1011.7
20180717171618 55 339 9.0 0.0 0.00 0.00 0.00 74 1011.5
20180717170110 54 339 9.0 0.0 0.00 0.00 0.00 72 1011.5
20180717164607 55 339 9.0 0.0 0.00 0.00 0.00 70 1011.5
20180717163106 56 339 9.0 0.0 0.00 0.00 0.00 62 1011.5
20180717161602 56 339 8.0 0.0 0.00 0.00 0.00 60 1011.5
20180717160059 56 339 8.0 0.0 0.00 0.00 0.00 59 1011.7
20180717154559 57 339 8.0 0.0 0.00 0.00 0.00 54 1011.8
20180717153056 58 339 8.0 0.0 0.00 0.00 0.00 52 1011.8
20180717151555 57 339 7.0 0.0 0.00 0.00 0.00 52 1011.9
20180717150054 57 339 7.0 0.0 0.00 0.00 0.00 49 1012.1
20180717144552 57 339 8.0 0.0 0.00 0.00 0.00 50 1012.2
20180717143050 57 339 7.0 0.0 0.00 0.00 0.00 52 1012.2
20180717141551 57 339 8.0 0.0 0.00 0.00 0.00 48 1012.4
20180717140046 57 339 7.0 0.0 0.00 0.00 0.00 52 1012.3
20180717134545 57 339 7.0 0.0 0.00 0.00 0.00 52 1012.4
20180717133043 56 339 8.0 0.0 0.00 0.00 0.00 53 1012.5
20180717131543 58 339 7.0 0.0 0.00 0.00 0.00 50 1012.7
20180717130038 58 339 5.0 0.0 0.00 0.00 0.00 50 1012.8
20180717124540 58 339 5.0 0.0 0.00 0.00 0.00 51 1012.8
20180717123038 57 339 5.0 0.0 0.00 0.00 0.00 55 1012.7
20180717121533 57 339 4.0 0.0 0.00 0.00 0.00 51 1012.8
20180717120030 56 339 2.0 0.0 0.00 0.00 0.00 53 1012.9
20180717114532 55 339 2.0 0.0 0.00 0.00 0.00 49 1012.9
20180717113026 56 339 2.0 0.0 0.00 0.00 0.00 52 1012.9
20180717111523 0 0.0 0.0 0.00 0.00 0.00 1013.0
20180717110218 0 0.0 0.0 0.00 0.00 0.00